,,PA_Meas_PMT16A,,PR_Meas_QMR101_102,,RH_Meas_QMH101,,SR_Meas_QMS101,,TA_Meas_QMH101,,GenWind,,GenWind,
time,status,PA,status,PR,status,RH,status,SR,status,TA,status,DirAvg,status,SpdAvg,
2012-05-17, 00:00:05,VALID,917.412,VALID,0,VALID,89.0186,VALID,0,VALID,20.5594,VALID,359,VALID,0.632422,
2012-05-17, 00:01:05,VALID,917.412,VALID,0,VALID,89.011,VALID,0,VALID,20.5594,VALID,336,VALID,0.652344,
2012-05-17, 00:02:05,VALID,917.365,VALID,0,VALID,88.9424,VALID,0,VALID,20.5789,VALID,336,VALID,0.571875,
2012-05-17, 00:03:05,VALID,917.364,VALID,0,VALID,88.7747,VALID,0,VALID,20.5773,VALID,336,VALID,0.237891,
2012-05-17, 00:04:05,VALID,917.368,VALID,0,VALID,88.5384,VALID,0,VALID,20.6179,VALID,350,VALID,0.953125,
2012-05-17, 00:05:05,VALID,917.328,VALID,0,VALID,88.5307,VALID,0,VALID,20.6179,VALID,337,VALID,0.465625,
2012-05-17, 00:06:05,VALID,917.343,VALID,0,VALID,88.3783,VALID,0,VALID,20.6374,VALID,347,VALID,0.430859,
2012-05-17, 00:07:05,VALID,917.348,VALID,0,VALID,88.3173,VALID,0,VALID,20.6585,VALID,347,VALID,0.350781,
2012-05-17, 00:08:05,VALID,917.325,VALID,0,VALID,88.1724,VALID,0,VALID,20.6374,VALID,347,VALID,0.828906,
2012-05-17, 00:09:05,VALID,917.323,VALID,0,VALID,88.241,VALID,0,VALID,20.6179,VALID,347,VALID,0.564453,
2012-05-17, 00:10:05,VALID,917.301,VALID,0,VALID,88.3249,VALID,0,VALID,20.5984,VALID,347,VALID,0.502734,
2012-05-17, 00:11:05,VALID,917.292,VALID,0,VALID,88.6146,VALID,0,VALID,20.5804,VALID,347,VALID,1.02305,
2012-05-17, 00:12:05,VALID,917.258,VALID,0,VALID,88.8204,VALID,0,VALID,20.5594,VALID,347,VALID,0.916797,
2012-05-17, 00:13:05,VALID,917.237,VALID,0,VALID,88.889,VALID,0,VALID,20.5399,VALID,347,VALID,0.649609,
2012-05-17, 00:14:05,VALID,917.237,VALID,0,VALID,89.0186,VALID,0,VALID,20.5399,VALID,347,VALID,0.978516,
2012-05-17, 00:15:05,VALID,917.237,VALID,0,VALID,89.0263,VALID,0,VALID,20.5594,VALID,347,VALID,0.636719,
2012-05-17, 00:16:05,VALID,917.254,VALID,0,VALID,88.9881,VALID,0,VALID,20.5594,VALID,347,VALID,0.542578,
2012-05-17, 00:17:05,VALID,917.301,VALID,0,VALID,89.0644,VALID,0,VALID,20.5609,VALID,330,VALID,0.890234,
2012-05-17, 00:18:05,VALID,917.281,VALID,0,VALID,89.1482,VALID,0,VALID,20.5609,VALID,339,VALID,1.07969,
2012-05-17, 00:19:05,VALID,917.284,VALID,0,VALID,88.9195,VALID,0,VALID,20.5804,VALID,343,VALID,0.998438,
2012-05-17, 00:20:05,VALID,917.246,VALID,0,VALID,88.828,VALID,0,VALID,20.5594,VALID,343,VALID,0.605859,
2012-05-17, 00:21:05,VALID,917.196,VALID,0,VALID,88.7671,VALID,0,VALID,20.5609,VALID,339,VALID,1.04297,
2012-05-17, 00:22:05,VALID,917.181,VALID,0,VALID,88.5917,VALID,0,VALID,20.5609,VALID,339,VALID,0.865625,
2012-05-17, 00:23:05,VALID,917.139,VALID,0,VALID,88.6222,VALID,0,VALID,20.5594,VALID,348,VALID,0.782422,
2012-05-17, 00:24:05,VALID,917.1,VALID,0,VALID,88.7823,VALID,0,VALID,20.5204,VALID,350,VALID,0.990625,
2012-05-17, 00:25:05,VALID,917.078,VALID,0,VALID,88.9119,VALID,0,VALID,20.5219,VALID,348,VALID,1.07383,
2012-05-17, 00:26:05,VALID,917.111,VALID,0,VALID,88.9653,VALID,0,VALID,20.5204,VALID,348,VALID,0.712109,
2012-05-17, 00:27:05,VALID,917.082,VALID,0,VALID,89.0949,VALID,0,VALID,20.4977,VALID,325,VALID,1.47344,
2012-05-17, 00:28:05,VALID,917.072,VALID,0,VALID,88.9576,VALID,0,VALID,20.6226,VALID,345,VALID,0.915234,
2012-05-17, 00:29:05,VALID,917.088,VALID,0,VALID,88.7289,VALID,0,VALID,20.5999,VALID,304,VALID,0.60625,
2012-05-17, 00:30:05,VALID,917.035,VALID,0,VALID,89.0796,VALID,0,VALID,20.5594,VALID,318,VALID,0.785547,
2012-05-17, 00:31:05,VALID,917.018,VALID,0,VALID,89.4684,VALID,0,VALID,20.5009,VALID,335,VALID,0.754687,
2012-05-17, 00:32:05,VALID,916.985,VALID,0,VALID,89.7276,VALID,0,VALID,20.4798,VALID,335,VALID,0.421094,
2012-05-17, 00:33:05,VALID,916.934,VALID,0,VALID,89.8801,VALID,0,VALID,20.4634,VALID,335,VALID,0.502344,
2012-05-17, 00:34:05,VALID,916.91,VALID,0,VALID,90.1316,VALID,0,VALID,20.4049,VALID,335,VALID,0.730469,
2012-05-17, 00:35:05,VALID,916.895,VALID,0,VALID,90.6577,VALID,0,VALID,20.3253,VALID,335,VALID,0.669922,
2012-05-17, 00:36:05,VALID,916.87,VALID,0,VALID,90.8254,VALID,0,VALID,20.3284,VALID,335,VALID,0.650781,
2012-05-17, 00:37:05,VALID,916.867,VALID,0,VALID,91.2142,VALID,0,VALID,20.2684,VALID,335,VALID,0.298438,
2012-05-17, 00:38:05,VALID,916.814,VALID,0,VALID,91.077,VALID,0,VALID,20.2293,VALID,335,VALID,0.430859,
2012-05-17, 00:39:05,VALID,916.786,VALID,0,VALID,90.9245,VALID,0,VALID,20.1708,VALID,335,VALID,0.664844,
2012-05-17, 00:40:05,VALID,916.763,VALID,0,VALID,91.3057,VALID,0,VALID,20.0928,VALID,335,VALID,0.245312,
2012-05-17, 00:41:05,VALID,916.794,VALID,0,VALID,91.8088,VALID,0,VALID,20.0538,VALID,335,VALID,0.0949219,
2012-05-17, 00:42:05,VALID,916.742,VALID,0,VALID,92.3882,VALID,0,VALID,20.0523,VALID,335,VALID,0.498437,
2012-05-17, 00:43:05,VALID,916.754,VALID,0,VALID,92.472,VALID,0,VALID,20.0523,VALID,335,VALID,0.264062,
2012-05-17, 00:44:05,VALID,916.734,VALID,0,VALID,92.2433,VALID,0,VALID,20.0328,VALID,335,VALID,0.410937,
2012-05-17, 00:45:05,VALID,916.732,VALID,0,VALID,92.5559,VALID,0,VALID,20.0538,VALID,335,VALID,0.422656,
2012-05-17, 00:46:05,VALID,916.727,VALID,0,VALID,92.5178,VALID,0,VALID,20.0523,VALID,335,VALID,0.0277344,
2012-05-17, 00:47:05,VALID,916.709,VALID,0,VALID,92.0832,VALID,0,VALID,20.0343,VALID,335,VALID,0.871484,
2012-05-17, 00:48:05,VALID,916.659,VALID,0,VALID,92.7922,VALID,0,VALID,20.0523,VALID,356,VALID,1.13789,
2012-05-17, 00:49:05,VALID,916.652,VALID,0,VALID,92.7084,VALID,0,VALID,20.0718,VALID,8,VALID,1.48398,
2012-05-17, 00:50:05,VALID,916.671,VALID,0,VALID,92.4568,VALID,0,VALID,20.1318,VALID,356,VALID,1.62422,
2012-05-17, 00:51:05,VALID,916.718,VALID,0,VALID,92.2433,VALID,0,VALID,20.1693,VALID,355,VALID,0.712109,
2012-05-17, 00:52:05,VALID,916.651,VALID,0,VALID,92.3424,VALID,0,VALID,20.2083,VALID,355,VALID,0.295312,
2012-05-17, 00:53:05,VALID,916.649,VALID,0,VALID,92.007,VALID,0,VALID,20.2278,VALID,355,VALID,0.559375,
2012-05-17, 00:54:05,VALID,916.617,VALID,0,VALID,91.7021,VALID,0,VALID,20.2489,VALID,355,VALID,0.823047,
2012-05-17, 00:55:05,VALID,916.66,VALID,0,VALID,91.5496,VALID,0,VALID,20.2684,VALID,355,VALID,0.873438,
2012-05-17, 00:56:05,VALID,916.62,VALID,0,VALID,91.5191,VALID,0,VALID,20.2458,VALID,355,VALID,0.321875,
2012-05-17, 00:57:05,VALID,916.591,VALID,0,VALID,91.8393,VALID,0,VALID,20.2458,VALID,355,VALID,0.573828,
2012-05-17, 00:58:05,VALID,916.577,VALID,0,VALID,92.0985,VALID,0.107441,VALID,20.2458,VALID,355,VALID,0.021875,
2012-05-17, 00:59:05,VALID,916.543,VALID,0,VALID,91.9613,VALID,0.107441,VALID,20.2458,VALID,355,VALID,0.444141,
2012-05-17, 01:00:05,VALID,916.564,VALID,0,VALID,91.7173,VALID,0,VALID,20.2263,VALID,355,VALID,0.557813,
2012-05-17, 01:01:05,VALID,916.575,VALID,0,VALID,91.6868,VALID,0,VALID,20.2068,VALID,355,VALID,0.301953,
2012-05-17, 01:02:05,VALID,916.591,VALID,0,VALID,91.8545,VALID,0.107441,VALID,20.1873,VALID,355,VALID,0,
2012-05-17, 01:03:05,VALID,916.585,VALID,0,VALID,92.0146,VALID,0,VALID,20.2083,VALID,355,VALID,0,
2012-05-17, 01:04:05,VALID,916.568,VALID,0,VALID,92.0756,VALID,0.107441,VALID,20.1678,VALID,355,VALID,0,
2012-05-17, 01:05:05,VALID,916.515,VALID,0,VALID,91.664,VALID,0.107441,VALID,20.1288,VALID,355,VALID,0,
2012-05-17, 01:06:05,VALID,916.517,VALID,0,VALID,91.9918,VALID,0.107441,VALID,20.1093,VALID,355,VALID,0.207813,
2012-05-17, 01:07:05,VALID,916.516,VALID,0,VALID,92.068,VALID,0.107441,VALID,20.0703,VALID,355,VALID,0,
2012-05-17, 01:08:05,VALID,916.521,VALID,0,VALID,92.1595,VALID,0.107441,VALID,20.0508,VALID,355,VALID,0,
2012-05-17, 01:09:05,VALID,916.526,VALID,0,VALID,91.8393,VALID,0.107441,VALID,20.0118,VALID,355,VALID,0.606641,
2012-05-17, 01:10:05,VALID,916.482,VALID,0,VALID,91.7554,VALID,0.107441,VALID,19.9338,VALID,355,VALID,0.267578,
2012-05-17, 01:11:05,VALID,916.507,VALID,0,VALID,91.8698,VALID,0,VALID,19.8978,VALID,355,VALID,0.0492188,
2012-05-17, 01:12:05,VALID,916.503,VALID,0,VALID,92.3119,VALID,0,VALID,19.8573,VALID,355,VALID,0.226172,
2012-05-17, 01:13:05,VALID,916.467,VALID,0,VALID,92.533,VALID,0,VALID,19.8378,VALID,355,VALID,0.00078125,
2012-05-17, 01:14:05,VALID,916.44,VALID,0,VALID,92.6474,VALID,0,VALID,19.8183,VALID,355,VALID,0.427734,
2012-05-17, 01:15:05,VALID,916.419,VALID,0,VALID,92.8456,VALID,0,VALID,19.7793,VALID,355,VALID,0.373047,
2012-05-17, 01:16:05,VALID,916.383,VALID,0,VALID,92.8075,VALID,0,VALID,19.7808,VALID,355,VALID,0,
2012-05-17, 01:17:05,VALID,916.34,VALID,0,VALID,92.5711,VALID,0,VALID,19.7208,VALID,355,VALID,0,
2012-05-17, 01:18:05,VALID,916.332,VALID,0,VALID,92.9142,VALID,0,VALID,19.7208,VALID,355,VALID,0,
2012-05-17, 01:19:04,VALID,916.272,VALID,0,VALID,93.2268,VALID,0,VALID,19.7418,VALID,355,VALID,0.345313,
2012-05-17, 01:20:04,VALID,916.255,VALID,0,VALID,93.4097,VALID,0,VALID,19.7418,VALID,355,VALID,0.343359,
2012-05-17, 01:21:04,VALID,916.207,VALID,0,VALID,93.3182,VALID,0,VALID,19.7013,VALID,355,VALID,0,
2012-05-17, 01:22:04,VALID,916.217,VALID,0,VALID,93.0285,VALID,0,VALID,19.6233,VALID,355,VALID,0,
2012-05-17, 01:23:04,VALID,916.174,VALID,0,VALID,93.4859,VALID,0,VALID,19.6428,VALID,355,VALID,0,
2012-05-17, 01:24:04,VALID,916.148,VALID,0,VALID,93.6232,VALID,0,VALID,19.6428,VALID,355,VALID,0,
2012-05-17, 01:25:04,VALID,916.152,VALID,0,VALID,93.7909,VALID,0,VALID,19.6428,VALID,355,VALID,0,
2012-05-17, 01:26:04,VALID,916.13,VALID,0,VALID,93.7528,VALID,0,VALID,19.6428,VALID,355,VALID,0,
2012-05-17, 01:27:04,VALID,916.076,VALID,0,VALID,93.8443,VALID,0,VALID,19.6428,VALID,355,VALID,0,
2012-05-17, 01:28:04,VALID,916.1,VALID,0,VALID,93.9281,VALID,0,VALID,19.6623,VALID,355,VALID,0,
2012-05-17, 01:29:04,VALID,916.113,VALID,0,VALID,93.4402,VALID,0,VALID,19.6233,VALID,355,VALID,0,
2012-05-17, 01:30:04,VALID,916.098,VALID,0,VALID,93.4097,VALID,0,VALID,19.6248,VALID,355,VALID,0,
2012-05-17, 01:31:04,VALID,916.122,VALID,0,VALID,93.5774,VALID,0,VALID,19.6428,VALID,355,VALID,0.0449219,
2012-05-17, 01:32:04,VALID,916.108,VALID,0,VALID,93.7756,VALID,0,VALID,19.6818,VALID,355,VALID,0,
2012-05-17, 01:33:04,VALID,916.069,VALID,0,VALID,93.9815,VALID,0,VALID,19.6998,VALID,355,VALID,0,
2012-05-17, 01:34:04,VALID,916.05,VALID,0,VALID,94.012,VALID,0,VALID,19.7793,VALID,355,VALID,0,
2012-05-17, 01:35:04,VALID,916.079,VALID,0,VALID,93.4555,VALID,0,VALID,19.8003,VALID,355,VALID,0,
2012-05-17, 01:36:04,VALID,916.065,VALID,0,VALID,93.059,VALID,0,VALID,19.7403,VALID,355,VALID,0.0878906,
2012-05-17, 01:37:04,VALID,916.014,VALID,0,VALID,93.0895,VALID,0,VALID,19.7793,VALID,355,VALID,0,
2012-05-17, 01:38:04,VALID,916.022,VALID,0,VALID,92.9981,VALID,0,VALID,19.7988,VALID,355,VALID,0,
2012-05-17, 01:39:04,VALID,915.987,VALID,0,VALID,92.6474,VALID,0,VALID,19.8003,VALID,355,VALID,0,
2012-05-17, 01:40:04,VALID,916.017,VALID,0,VALID,93.0514,VALID,0,VALID,19.8198,VALID,355,VALID,0.247266,
2012-05-17, 01:41:04,VALID,915.991,VALID,0,VALID,92.6397,VALID,0,VALID,19.7988,VALID,355,VALID,0,
2012-05-17, 01:42:04,VALID,916.008,VALID,0,VALID,92.0985,VALID,0,VALID,19.7208,VALID,355,VALID,0,
2012-05-17, 01:43:04,VALID,915.977,VALID,0,VALID,92.7541,VALID,0,VALID,19.7208,VALID,355,VALID,0,
2012-05-17, 01:44:04,VALID,916.005,VALID,0,VALID,92.7007,VALID,0,VALID,19.7013,VALID,355,VALID,0,
2012-05-17, 01:45:04,VALID,916.008,VALID,0,VALID,92.5788,VALID,0,VALID,19.6818,VALID,355,VALID,0,
2012-05-17, 01:46:04,VALID,915.98,VALID,0,VALID,92.5483,VALID,0,VALID,19.6428,VALID,355,VALID,0,
2012-05-17, 01:47:04,VALID,915.944,VALID,0,VALID,92.7998,VALID,0,VALID,19.6638,VALID,355,VALID,0,
2012-05-17, 01:48:04,VALID,915.958,VALID,0,VALID,92.7998,VALID,0,VALID,19.5843,VALID,355,VALID,0,
2012-05-17, 01:49:04,VALID,915.938,VALID,0,VALID,92.9218,VALID,0,VALID,19.5258,VALID,355,VALID,0,
2012-05-17, 01:50:04,VALID,915.945,VALID,0,VALID,93.6308,VALID,0,VALID,19.5663,VALID,355,VALID,0.00195313,
2012-05-17, 01:51:04,VALID,915.951,VALID,0,VALID,94.2026,VALID,0,VALID,19.6248,VALID,355,VALID,0,
2012-05-17, 01:52:04,VALID,915.941,VALID,0,VALID,94.3093,VALID,0,VALID,19.5648,VALID,355,VALID,0,
2012-05-17, 01:53:04,VALID,915.953,VALID,0,VALID,94.355,VALID,0,VALID,19.5648,VALID,355,VALID,0,
2012-05-17, 01:54:04,VALID,915.953,VALID,0,VALID,94.3169,VALID,0,VALID,19.5648,VALID,355,VALID,0.137109,
2012-05-17, 01:55:04,VALID,915.935,VALID,0,VALID,94.1111,VALID,0,VALID,19.4868,VALID,355,VALID,0.204688,
2012-05-17, 01:56:04,VALID,915.917,VALID,0,VALID,94.2483,VALID,0,VALID,19.4868,VALID,355,VALID,0,
2012-05-17, 01:57:04,VALID,915.88,VALID,0,VALID,94.4084,VALID,0,VALID,19.5078,VALID,355,VALID,0,
2012-05-17, 01:58:04,VALID,915.887,VALID,0,VALID,94.4008,VALID,0,VALID,19.5078,VALID,355,VALID,0,
2012-05-17, 01:59:04,VALID,915.854,VALID,0,VALID,93.8061,VALID,0,VALID,19.3893,VALID,355,VALID,0.028125,
2012-05-17, 02:00:04,VALID,915.811,VALID,0,VALID,94.0882,VALID,0,VALID,19.3503,VALID,355,VALID,0.615625,
2012-05-17, 02:01:04,VALID,915.825,VALID,0,VALID,94.3017,VALID,0,VALID,19.3503,VALID,355,VALID,0.452344,
2012-05-17, 02:02:04,VALID,915.847,VALID,0,VALID,94.6066,VALID,0,VALID,19.3698,VALID,355,VALID,0.383203,
2012-05-17, 02:03:04,VALID,915.838,VALID,0,VALID,94.66,VALID,0,VALID,19.4283,VALID,355,VALID,0.463281,
2012-05-17, 02:04:04,VALID,915.819,VALID,0,VALID,94.477,VALID,0,VALID,19.4673,VALID,355,VALID,1.46211,
2012-05-17, 02:05:04,VALID,915.788,VALID,0,VALID,94.0653,VALID,0,VALID,19.5468,VALID,355,VALID,0.841406,
2012-05-17, 02:06:04,VALID,915.79,VALID,0,VALID,93.4936,VALID,0,VALID,19.5858,VALID,355,VALID,1.16992,
2012-05-17, 02:07:04,VALID,915.766,VALID,0,VALID,93.2191,VALID,0,VALID,19.6038,VALID,355,VALID,1.1793,
2012-05-17, 02:08:04,VALID,915.745,VALID,0,VALID,92.8303,VALID,0,VALID,19.6443,VALID,355,VALID,1.36953,
2012-05-17, 02:09:04,VALID,915.751,VALID,0,VALID,92.533,VALID,0,VALID,19.6248,VALID,355,VALID,0.653125,
2012-05-17, 02:10:04,VALID,915.736,VALID,0,VALID,92.4949,VALID,0,VALID,19.6428,VALID,355,VALID,1.0625,
2012-05-17, 02:11:04,VALID,915.752,VALID,0,VALID,92.4492,VALID,0,VALID,19.7028,VALID,355,VALID,0.490234,
2012-05-17, 02:12:04,VALID,915.762,VALID,0,VALID,92.129,VALID,0,VALID,19.7013,VALID,355,VALID,0.707422,
2012-05-17, 02:13:04,VALID,915.741,VALID,0,VALID,92.1442,VALID,0,VALID,19.7418,VALID,358,VALID,1.39766,
2012-05-17, 02:14:04,VALID,915.772,VALID,0,VALID,91.7173,VALID,0,VALID,19.8003,VALID,14,VALID,1.53125,
2012-05-17, 02:15:04,VALID,915.818,VALID,0,VALID,91.3819,VALID,0,VALID,19.8378,VALID,14,VALID,1.02148,
2012-05-17, 02:16:04,VALID,915.838,VALID,0,VALID,91.3209,VALID,0,VALID,19.8573,VALID,14,VALID,0.676172,
2012-05-17, 02:17:04,VALID,915.795,VALID,0,VALID,91.3438,VALID,0,VALID,19.8768,VALID,14,VALID,0.0902344,
2012-05-17, 02:18:04,VALID,915.78,VALID,0,VALID,91.5648,VALID,0,VALID,19.8768,VALID,14,VALID,0.2375,
2012-05-17, 02:19:04,VALID,915.778,VALID,0,VALID,91.5572,VALID,0,VALID,19.8573,VALID,14,VALID,0.110156,
2012-05-17, 02:20:04,VALID,915.786,VALID,0,VALID,91.542,VALID,0,VALID,19.8588,VALID,14,VALID,0.0015625,
2012-05-17, 02:21:04,VALID,915.777,VALID,0,VALID,91.5267,VALID,0,VALID,19.8378,VALID,14,VALID,0.472656,
2012-05-17, 02:22:04,VALID,915.794,VALID,0,VALID,91.5039,VALID,0,VALID,19.8393,VALID,323,VALID,0.550391,
2012-05-17, 02:23:04,VALID,915.793,VALID,0,VALID,91.4962,VALID,0,VALID,19.8588,VALID,332,VALID,0.356641,
2012-05-17, 02:24:04,VALID,915.764,VALID,0,VALID,91.4734,VALID,0,VALID,19.8183,VALID,332,VALID,0,
2012-05-17, 02:25:04,VALID,915.774,VALID,0,VALID,91.6487,VALID,0,VALID,19.8198,VALID,332,VALID,0,
2012-05-17, 02:26:04,VALID,915.72,VALID,0,VALID,91.7783,VALID,0,VALID,19.7973,VALID,332,VALID,0,
2012-05-17, 02:27:04,VALID,915.732,VALID,0,VALID,92.129,VALID,0.107441,VALID,19.7778,VALID,332,VALID,0,
2012-05-17, 02:28:04,VALID,915.71,VALID,0,VALID,91.9918,VALID,0,VALID,19.7793,VALID,332,VALID,0.385156,
2012-05-17, 02:29:04,VALID,915.661,VALID,0,VALID,91.6487,VALID,0.107441,VALID,19.7598,VALID,332,VALID,0,
2012-05-17, 02:30:04,VALID,915.653,VALID,0,VALID,91.4581,VALID,0.107441,VALID,19.7193,VALID,336,VALID,0.251172,
2012-05-17, 02:31:04,VALID,915.689,VALID,0,VALID,91.5039,VALID,0,VALID,19.7193,VALID,336,VALID,0.13125,
2012-05-17, 02:32:04,VALID,915.652,VALID,0,VALID,91.237,VALID,0,VALID,19.7013,VALID,21,VALID,0.526953,
2012-05-17, 02:33:04,VALID,915.647,VALID,0,VALID,90.9092,VALID,0,VALID,19.7013,VALID,21,VALID,0.183984,
2012-05-17, 02:34:04,VALID,915.639,VALID,0,VALID,90.9473,VALID,0,VALID,19.6833,VALID,21,VALID,0,
2012-05-17, 02:35:04,VALID,915.626,VALID,0,VALID,91.2294,VALID,0,VALID,19.6428,VALID,21,VALID,0.284766,
2012-05-17, 02:36:04,VALID,915.635,VALID,0,VALID,91.1989,VALID,0.107441,VALID,19.6023,VALID,35,VALID,0.749219,
2012-05-17, 02:37:04,VALID,915.615,VALID,0,VALID,90.8025,VALID,0,VALID,19.6233,VALID,35,VALID,0.0015625,
2012-05-17, 02:38:04,VALID,915.662,VALID,0,VALID,90.6882,VALID,0,VALID,19.6233,VALID,35,VALID,0.161719,
2012-05-17, 02:39:04,VALID,915.6,VALID,0,VALID,90.6653,VALID,0,VALID,19.6233,VALID,35,VALID,0.0753906,
2012-05-17, 02:40:04,VALID,915.62,VALID,0,VALID,90.5357,VALID,0,VALID,19.6038,VALID,35,VALID,0,
2012-05-17, 02:41:04,VALID,915.59,VALID,0,VALID,90.65,VALID,0.107441,VALID,19.5843,VALID,35,VALID,0,
2012-05-17, 02:42:04,VALID,915.601,VALID,0,VALID,90.9931,VALID,0,VALID,19.5648,VALID,35,VALID,0.292969,
2012-05-17, 02:43:04,VALID,915.575,VALID,0,VALID,91.2142,VALID,0,VALID,19.5843,VALID,56,VALID,0.486719,
2012-05-17, 02:44:04,VALID,915.545,VALID,0,VALID,91.3895,VALID,0,VALID,19.6038,VALID,56,VALID,0.553516,
2012-05-17, 02:45:04,VALID,915.533,VALID,0,VALID,91.4352,VALID,0,VALID,19.5843,VALID,56,VALID,0.666016,
2012-05-17, 02:46:04,VALID,915.494,VALID,0,VALID,91.5572,VALID,0,VALID,19.5633,VALID,56,VALID,0.423828,
2012-05-17, 02:47:04,VALID,915.465,VALID,0,VALID,91.6258,VALID,0,VALID,19.5648,VALID,56,VALID,0.485938,
2012-05-17, 02:48:04,VALID,915.414,VALID,0,VALID,92.0832,VALID,0,VALID,19.5243,VALID,57,VALID,0.862109,
2012-05-17, 02:49:04,VALID,915.379,VALID,0,VALID,92.2814,VALID,0,VALID,19.5063,VALID,56,VALID,0,
2012-05-17, 02:50:04,VALID,915.392,VALID,0,VALID,92.5406,VALID,0.107441,VALID,19.4478,VALID,56,VALID,0.903516,
2012-05-17, 02:51:04,VALID,915.317,VALID,0,VALID,92.6626,VALID,0,VALID,19.4088,VALID,57,VALID,0,
2012-05-17, 02:52:04,VALID,915.3,VALID,0,VALID,92.777,VALID,0,VALID,19.3698,VALID,57,VALID,0,
2012-05-17, 02:53:04,VALID,915.292,VALID,0,VALID,92.5406,VALID,0,VALID,19.3113,VALID,57,VALID,0,
2012-05-17, 02:54:04,VALID,915.255,VALID,0,VALID,92.9828,VALID,0,VALID,19.2918,VALID,57,VALID,0,
2012-05-17, 02:55:04,VALID,915.28,VALID,0,VALID,93.3945,VALID,0,VALID,19.2918,VALID,57,VALID,0,
2012-05-17, 02:56:04,VALID,915.258,VALID,0,VALID,93.5622,VALID,0.107441,VALID,19.2904,VALID,57,VALID,0,
2012-05-17, 02:57:04,VALID,915.224,VALID,0,VALID,93.6308,VALID,0,VALID,19.2514,VALID,57,VALID,0,
2012-05-17, 02:58:04,VALID,915.231,VALID,0,VALID,93.5622,VALID,0.107441,VALID,19.2528,VALID,57,VALID,0,
2012-05-17, 02:59:04,VALID,915.208,VALID,0,VALID,93.8824,VALID,0,VALID,19.2723,VALID,57,VALID,0,
2012-05-17, 03:00:04,VALID,915.192,VALID,0,VALID,93.9052,VALID,0,VALID,19.2723,VALID,57,VALID,0,
2012-05-17, 03:01:04,VALID,915.164,VALID,0,VALID,93.9434,VALID,0,VALID,19.3113,VALID,57,VALID,0,
2012-05-17, 03:02:04,VALID,915.19,VALID,0,VALID,93.8747,VALID,0,VALID,19.3113,VALID,57,VALID,0,
2012-05-17, 03:03:04,VALID,915.194,VALID,0,VALID,93.9205,VALID,0,VALID,19.3503,VALID,57,VALID,0,
2012-05-17, 03:04:04,VALID,915.174,VALID,0,VALID,93.6613,VALID,0,VALID,19.3503,VALID,57,VALID,0,
2012-05-17, 03:05:04,VALID,915.156,VALID,0,VALID,93.4859,VALID,0,VALID,19.3698,VALID,57,VALID,0,
2012-05-17, 03:06:04,VALID,915.145,VALID,0,VALID,93.3259,VALID,0,VALID,19.4088,VALID,57,VALID,0,
2012-05-17, 03:07:04,VALID,915.147,VALID,0,VALID,92.9981,VALID,0,VALID,19.4283,VALID,57,VALID,0,
2012-05-17, 03:08:04,VALID,915.137,VALID,0,VALID,92.7007,VALID,0,VALID,19.5078,VALID,57,VALID,0,
2012-05-17, 03:09:04,VALID,915.121,VALID,0,VALID,92.1366,VALID,0,VALID,19.5453,VALID,56,VALID,0,
2012-05-17, 03:10:04,VALID,915.092,VALID,0,VALID,91.3133,VALID,0,VALID,19.5468,VALID,57,VALID,0,
2012-05-17, 03:11:04,VALID,915.087,VALID,0,VALID,91.7097,VALID,0,VALID,19.5468,VALID,57,VALID,0,
2012-05-17, 03:12:04,VALID,915.098,VALID,0,VALID,91.6792,VALID,0,VALID,19.5858,VALID,57,VALID,0,
2012-05-17, 03:13:04,VALID,915.129,VALID,0,VALID,91.4581,VALID,0,VALID,19.5858,VALID,57,VALID,0,
2012-05-17, 03:14:04,VALID,915.059,VALID,0,VALID,91.3514,VALID,0,VALID,19.5858,VALID,56,VALID,0,
2012-05-17, 03:15:04,VALID,915.034,VALID,0,VALID,91.2828,VALID,0,VALID,19.5663,VALID,57,VALID,0,
2012-05-17, 03:16:04,VALID,915.046,VALID,0,VALID,91.1837,VALID,0,VALID,19.4868,VALID,56,VALID,0,
2012-05-17, 03:17:04,VALID,915.035,VALID,0,VALID,91.3209,VALID,0,VALID,19.4478,VALID,57,VALID,0,
2012-05-17, 03:18:04,VALID,915.01,VALID,0,VALID,91.481,VALID,0,VALID,19.4088,VALID,57,VALID,0,
2012-05-17, 03:19:04,VALID,915.013,VALID,0,VALID,91.7249,VALID,0,VALID,19.4103,VALID,56,VALID,0,
2012-05-17, 03:20:04,VALID,915.002,VALID,0,VALID,91.8774,VALID,0,VALID,19.3908,VALID,57,VALID,0,
2012-05-17, 03:21:04,VALID,914.974,VALID,0,VALID,92.0985,VALID,0,VALID,19.3503,VALID,57,VALID,0,
2012-05-17, 03:22:04,VALID,914.971,VALID,0,VALID,92.1442,VALID,0,VALID,19.4493,VALID,57,VALID,0,
2012-05-17, 03:23:04,VALID,914.951,VALID,0,VALID,91.7021,VALID,0,VALID,19.4883,VALID,56,VALID,0,
2012-05-17, 03:24:04,VALID,914.899,VALID,0,VALID,91.1227,VALID,0,VALID,19.4688,VALID,57,VALID,0,
2012-05-17, 03:25:04,VALID,914.859,VALID,0,VALID,91.237,VALID,0,VALID,19.4688,VALID,57,VALID,0,
2012-05-17, 03:26:04,VALID,914.859,VALID,0,VALID,91.3743,VALID,0,VALID,19.4493,VALID,57,VALID,0,
2012-05-17, 03:27:04,VALID,914.866,VALID,0,VALID,91.3743,VALID,0,VALID,19.4493,VALID,57,VALID,0,
2012-05-17, 03:28:04,VALID,914.811,VALID,0,VALID,90.9702,VALID,0,VALID,19.4103,VALID,57,VALID,0,
2012-05-17, 03:29:04,VALID,914.786,VALID,0,VALID,91.0388,VALID,0,VALID,19.4103,VALID,57,VALID,0,
2012-05-17, 03:30:04,VALID,914.782,VALID,0,VALID,90.8483,VALID,0,VALID,19.4298,VALID,57,VALID,0,
2012-05-17, 03:31:04,VALID,914.804,VALID,0,VALID,90.3146,VALID,0,VALID,19.3698,VALID,57,VALID,0,
2012-05-17, 03:32:04,VALID,914.767,VALID,0,VALID,89.537,VALID,0,VALID,19.3308,VALID,57,VALID,0,
2012-05-17, 03:33:04,VALID,914.792,VALID,0,VALID,90.3985,VALID,0,VALID,19.2933,VALID,57,VALID,0,
2012-05-17, 03:34:04,VALID,914.772,VALID,0,VALID,91.1074,VALID,0,VALID,19.2543,VALID,57,VALID,0,
2012-05-17, 03:35:04,VALID,914.746,VALID,0,VALID,91.9384,VALID,0,VALID,19.1763,VALID,57,VALID,0,
2012-05-17, 03:36:04,VALID,914.744,VALID,0,VALID,92.5635,VALID,0,VALID,19.1568,VALID,57,VALID,0,
2012-05-17, 03:37:04,VALID,914.783,VALID,0,VALID,92.6093,VALID,0,VALID,19.1164,VALID,57,VALID,0,
2012-05-17, 03:38:04,VALID,914.719,VALID,0,VALID,92.716,VALID,0,VALID,19.1568,VALID,57,VALID,0,
2012-05-17, 03:39:04,VALID,914.732,VALID,0,VALID,92.7007,VALID,0,VALID,19.1763,VALID,57,VALID,0,
2012-05-17, 03:40:04,VALID,914.698,VALID,0,VALID,92.2814,VALID,0,VALID,19.2153,VALID,57,VALID,0,
2012-05-17, 03:41:04,VALID,914.677,VALID,0,VALID,91.9613,VALID,0,VALID,19.2918,VALID,57,VALID,0,
2012-05-17, 03:42:04,VALID,914.662,VALID,0,VALID,91.5191,VALID,0,VALID,19.3518,VALID,57,VALID,0,
2012-05-17, 03:43:04,VALID,914.647,VALID,0,VALID,91.1379,VALID,0,VALID,19.3908,VALID,56,VALID,0,
2012-05-17, 03:44:04,VALID,914.639,VALID,0,VALID,90.9092,VALID,0,VALID,19.3908,VALID,57,VALID,0,
2012-05-17, 03:45:04,VALID,914.682,VALID,0,VALID,90.8483,VALID,0,VALID,19.3698,VALID,57,VALID,0,
2012-05-17, 03:46:04,VALID,914.715,VALID,0,VALID,90.2536,VALID,0,VALID,19.3728,VALID,57,VALID,0,
2012-05-17, 03:47:04,VALID,914.688,VALID,0,VALID,90.6805,VALID,0,VALID,19.3518,VALID,56,VALID,0,
2012-05-17, 03:48:04,VALID,914.673,VALID,0,VALID,90.9931,VALID,0,VALID,19.3713,VALID,57,VALID,0,
2012-05-17, 03:49:04,VALID,914.681,VALID,0,VALID,90.833,VALID,0,VALID,19.4103,VALID,57,VALID,0,
2012-05-17, 03:50:04,VALID,914.666,VALID,0,VALID,90.429,VALID,0,VALID,19.3893,VALID,57,VALID,0,
2012-05-17, 03:51:04,VALID,914.65,VALID,0,VALID,90.6729,VALID,0,VALID,19.4298,VALID,57,VALID,0,